FW6569 Weather Reports


time (UTC)temp
C
wind
direction
speed
KPH
gust
KPH
rain 1hr
cm
rain 24hr
cm
rain mn
cm
humidity
%
barometer
mb
20260508205521 20 226 11.3 14.5 0.00 0.00 0.00 47 1010.2
20260508204521 20 219 8.0 11.3 0.00 0.00 0.00 48 1010.2
20260508203521 20 221 8.0 12.9 0.00 0.00 0.00 47 1010.5
20260508202541 20 232 8.0 12.9 0.00 0.00 0.00 46 1010.6
20260508201542 20 213 12.9 22.5 0.00 0.00 0.00 45 1010.9
20260508200542 20 229 11.3 19.3 0.00 0.00 0.00 45 1011.1
20260508195522 20 208 14.5 19.3 0.00 0.00 0.00 45 1011.5
20260508194522 20 232 11.3 29.0 0.00 0.00 0.00 45 1011.5
20260508193521 20 206 14.5 22.5 0.00 0.00 0.00 47 1011.7
20260508192521 19 202 17.7 25.7 0.00 0.00 0.00 45 1011.8
20260508191522 19 217 11.3 20.9 0.00 0.00 0.00 47 1012.0
20260508190521 19 215 16.1 25.7 0.00 0.00 0.00 46 1012.1
20260508185521 20 225 16.1 25.7 0.00 0.00 0.00 44 1012.1
20260508184522 20 226 16.1 25.7 0.00 0.00 0.00 44 1012.2
20260508183521 20 198 19.3 27.4 0.00 0.00 0.00 42 1012.1
20260508182542 21 189 17.7 25.7 0.00 0.00 0.00 43 1012.1
20260508181542 21 216 16.1 25.7 0.00 0.00 0.00 44 1012.2
20260508180522 20 199 17.7 27.4 0.00 0.00 0.00 44 1012.5
20260508175521 20 201 19.3 27.4 0.00 0.00 0.00 44 1012.6
20260508174522 20 196 19.3 29.0 0.00 0.00 0.00 45 1012.9
20260508173521 19 208 14.5 20.9 0.00 0.00 0.00 48 1013.2
20260508172522 19 191 17.7 24.1 0.00 0.00 0.00 47 1013.4
20260508171542 20 208 19.3 29.0 0.00 0.00 0.00 46 1013.5
20260508170522 18 207 16.1 24.1 0.00 0.00 0.00 49 1013.7
20260508165522 18 234 11.3 19.3 0.00 0.00 0.00 49 1014.0
20260508164521 20 220 20.9 37.0 0.00 0.00 0.00 46 1014.0
20260508163522 19 225 14.5 24.1 0.00 0.00 0.00 48 1014.1
20260508162522 19 220 16.1 24.1 0.00 0.00 0.00 49 1014.4
20260508161522 17 223 14.5 24.1 0.00 0.00 0.00 51 1014.5
20260508160522 17 220 14.5 20.9 0.00 0.00 0.00 52 1014.7
20260508155522 17 218 16.1 25.7 0.00 0.00 0.00 51 1014.8
20260508154522 18 217 20.9 29.0 0.00 0.00 0.00 50 1014.9
20260508153522 17 233 12.9 17.7 0.00 0.00 0.00 53 1014.9
20260508152522 17 232 16.1 22.5 0.00 0.00 0.00 53 1014.9
20260508151542 17 215 19.3 27.4 0.00 0.00 0.00 53 1015.0
20260508150522 16 213 17.7 24.1 0.00 0.00 0.00 52 1014.9
20260508145522 16 202 17.7 22.5 0.00 0.00 0.00 52 1014.9
20260508144522 16 226 11.3 25.7 0.00 0.00 0.00 54 1015.2
20260508143522 16 236 16.1 20.9 0.00 0.00 0.00 53 1015.4
20260508142542 15 209 19.3 29.0 0.00 0.00 0.00 53 1015.5
20260508141542 15 206 16.1 20.9 0.00 0.00 0.00 54 1015.5
20260508140522 15 198 14.5 22.5 0.00 0.00 0.00 54 1015.6
20260508135522 14 222 14.5 20.9 0.00 0.00 0.00 56 1015.6
20260508134522 13 210 14.5 19.3 0.00 0.00 0.00 57 1015.6
20260508133542 13 220 16.1 20.9 0.00 0.00 0.00 57 1015.6
20260508132522 13 217 16.1 24.1 0.00 0.00 0.00 58 1015.6
20260508131522 13 219 14.5 20.9 0.00 0.00 0.00 58 1015.6
20260508130522 12 214 11.3 20.9 0.00 0.00 0.00 59 1015.6
20260508125522 12 217 11.3 16.1 0.00 0.00 0.00 60 1015.6
20260508124523 11 210 9.7 14.5 0.00 0.00 0.00 62 1015.7
20260508123522 11 218 9.7 14.5 0.00 0.00 0.00 63 1015.6
20260508122522 10 201 11.3 14.5 0.00 0.00 0.00 64 1015.6
20260508121603 10 202 9.7 12.9 0.00 0.00 0.00 65 1015.5
20260508120522 10 205 11.3 14.5 0.00 0.00 0.00 65 1015.4
20260508115543 9 204 9.7 12.9 0.00 0.00 0.00 67 1015.3
20260508114522 8 187 8.0 12.9 0.00 0.00 0.00 70 1015.3
20260508113522 8 191 6.4 9.7 0.00 0.00 0.00 72 1015.2
20260508112523 7 190 6.4 6.4 0.00 0.00 0.00 74 1015.1
20260508111522 7 189 6.4 9.7 0.00 0.00 0.00 74 1015.1
20260508110523 7 194 6.4 8.0 0.00 0.00 0.00 75 1015.0
20260508105523 7 199 6.4 8.0 0.00 0.00 0.00 75 1014.9
20260508104522 6 199 4.8 8.0 0.00 0.00 0.00 76 1014.9
20260508103523 6 195 3.2 4.8 0.00 0.00 0.00 77 1014.8
20260508102522 6 190 4.8 4.8 0.00 0.00 0.00 77 1014.9
20260508101523 6 194 3.2 6.4 0.00 0.00 0.00 77 1014.9
20260508100523 6 149 3.2 4.8 0.00 0.00 0.00 76 1014.8
20260508095522 7 181 3.2 8.0 0.00 0.00 0.00 76 1014.8
20260508094522 7 174 1.6 3.2 0.00 0.00 0.00 75 1014.8
20260508093523 8 193 4.8 6.4 0.00 0.00 0.00 72 1014.9
20260508092523 8 212 6.4 8.0 0.00 0.00 0.00 71 1015.0
20260508091523 8 202 4.8 6.4 0.00 0.00 0.00 70 1014.9
20260508090543 8 213 3.2 4.8 0.00 0.00 0.00 69 1015.0
20260508085523 8 190 4.8 6.4 0.00 0.00 0.00 68 1014.9
20260508084523 8 197 6.4 8.0 0.00 0.00 0.00 67 1014.9
20260508083543 8 207 6.4 9.7 0.00 0.00 0.00 67 1014.9
20260508082523 9 209 6.4 9.7 0.00 0.00 0.00 68 1015.0
20260508081523 8 218 6.4 11.3 0.00 0.00 0.00 68 1014.9
20260508080523 8 212 6.4 9.7 0.00 0.00 0.00 69 1014.9
20260508075543 8 206 6.4 9.7 0.00 0.00 0.00 70 1014.9
20260508074522 8 210 4.8 8.0 0.00 0.00 0.00 72 1014.9
20260508073523 7 201 4.8 8.0 0.00 0.00 0.00 73 1014.9
20260508072543 7 225 3.2 4.8 0.00 0.00 0.00 74 1015.0
20260508071522 7 209 3.2 8.0 0.00 0.00 0.00 74 1015.0
20260508070523 8 0.0 0.0 0.00 0.00 0.00 72 1015.1
20260508065523 8 209 4.8 6.4 0.00 0.00 0.00 71 1015.1
20260508064523 8 206 4.8 8.0 0.00 0.00 0.00 71 1015.1
20260508063523 8 198 4.8 9.7 0.00 0.00 0.00 73 1015.1
20260508062523 7 197 6.4 9.7 0.00 0.00 0.00 75 1015.3
20260508061523 7 174 4.8 6.4 0.00 0.00 0.00 76 1015.4
20260508060523 7 193 6.4 9.7 0.00 0.00 0.00 77 1015.5
20260508055543 7 232 1.6 4.8 0.00 0.00 0.00 79 1015.8
20260508054523 6 204 4.8 4.8 0.00 0.00 0.00 82 1015.7
20260508053523 7 192 4.8 4.8 0.00 0.00 0.00 82 1015.7
20260508052523 7 189 3.2 4.8 0.00 0.00 0.00 81 1015.7
20260508051523 7 177 3.2 4.8 0.00 0.00 0.00 78 1015.7
20260508050603 7 196 1.6 4.8 0.00 0.00 0.00 78 1015.6
20260508045523 7 0.0 0.0 0.00 0.00 0.00 76 1015.6
20260508044523 8 0.0 0.0 0.00 0.00 0.00 75 1015.6
20260508043523 8 199 4.8 4.8 0.00 0.00 0.00 75 1015.6
20260508042523 8 190 4.8 6.4 0.00 0.00 0.00 75 1015.6
20260508041603 7 205 3.2 4.8 0.00 0.00 0.00 77 1015.7
20260508040523 7 205 3.2 4.8 0.00 0.00 0.00 80 1015.6
20260508035523 7 220 1.6 4.8 0.00 0.00 0.00 79 1015.6
20260508034523 7 195 3.2 4.8 0.00 0.00 0.00 78 1015.7
20260508033543 7 216 3.2 4.8 0.00 0.00 0.00 80 1015.7
20260508032604 7 195 4.8 4.8 0.00 0.00 0.00 78 1015.6
20260508031523 7 199 3.2 4.8 0.00 0.00 0.00 79 1015.8
20260508030523 7 209 4.8 6.4 0.00 0.00 0.00 80 1015.7
20260508025523 7 221 3.2 4.8 0.00 0.00 0.00 84 1015.6
20260508024523 7 230 1.6 3.2 0.00 0.00 0.00 84 1015.6
20260508023524 7 0.0 0.0 0.00 0.00 0.00 82 1015.5
20260508022523 7 233 1.6 3.2 0.00 0.00 0.00 83 1015.3
20260508021603 7 0.0 0.0 0.00 0.00 0.00 80 1015.3
20260508020524 8 0.0 0.0 0.00 0.00 0.00 79 1015.3
20260508015523 8 0.0 0.0 0.00 0.00 0.00 77 1015.2
20260508014524 8 0.0 0.0 0.00 0.00 0.00 76 1015.2
20260508013523 9 0.0 0.0 0.00 0.00 0.00 76 1015.1
20260508012524 9 0.0 0.0 0.00 0.00 0.00 74 1015.1
20260508011604 9 0.0 0.0 0.00 0.00 0.00 73 1015.0
20260508010524 10 0.0 0.0 0.00 0.00 0.00 69 1015.0
20260508005523 11 0.0 0.0 0.00 0.00 0.00 66 1014.9
20260508004544 11 0.0 0.0 0.00 0.00 0.00 67 1014.9
20260508003523 12 0.0 0.0 0.00 0.00 0.00 60 1014.9
20260508002524 12 0.0 0.0 0.00 0.00 0.00 56 1014.9
20260508001543 12 205 0.0 1.6 0.00 0.00 0.00 58 1014.8
20260508000604 13 0.0 0.0 0.00 0.00 0.00 53 1014.7
20260507235524 14 209 1.6 4.8 0.00 0.00 0.00 46 1014.7
20260507234523 14 188 4.8 6.4 0.00 0.00 0.00 43 1014.7
20260507233524 15 180 6.4 11.3 0.00 0.00 0.00 41 1014.7
20260507232524 16 214 4.8 8.0 0.00 0.00 0.00 39 1014.7
20260507231524 16 205 4.8 6.4 0.00 0.00 0.00 40 1014.8
20260507230524 16 277 1.6 4.8 0.00 0.00 0.00 37 1014.8
20260507225523 16 295 1.6 4.8 0.00 0.00 0.00 37 1014.8
20260507224524 16 233 8.0 16.1 0.00 0.00 0.00 37 1014.9
20260507223524 17 225 8.0 11.3 0.00 0.00 0.00 37 1014.9
20260507222523 18 332 4.8 9.7 0.00 0.00 0.00 34 1014.9
20260507221524 18 229 3.2 6.4 0.00 0.00 0.00 32 1014.9
20260507220524 17 319 3.2 6.4 0.00 0.00 0.00 34 1014.8
20260507215524 17 286 4.8 14.5 0.00 0.00 0.00 35 1014.8
20260507214524 17 228 4.8 9.7 0.00 0.00 0.00 36 1014.7
20260507213524 17 263 6.4 9.7 0.00 0.00 0.00 34 1014.9
20260507212524 17 227 6.4 11.3 0.00 0.00 0.00 36 1015.0
20260507211524 17 234 6.4 12.9 0.00 0.00 0.00 36 1015.2
20260507210524 17 275 6.4 11.3 0.00 0.00 0.00 37 1015.2